User: anonymous   Login
Location: Albany
(35.0000°S, 118.0000°E)
Time: 16:19:22
(UTC-05:00)
Language:

Transit 2A - Orbit

View from above orbital plane
View from above orbital plane
View from above satellite
View from above satellite

Ground track
Ground track

The orbit data is extracted from the following two-line orbital elements,

1 00045U 60007A   14355.22590182  .00001012  00000-0  27834-3 0  3118
2 00045 066.6952 264.0482 0260550 333.5955 191.0528 14.33197117835292
Epoch (UTC): 21 December 2014 05:25:17
Eccentricity: 0.0260550
inclination: 66.6952°
perigee height: 594 km
apogee height: 967 km
right ascension of ascending node: 264.0482°
argument of perigee: 333.5955°
revolutions per day: 14.33197117
mean anomaly at epoch: 191.0528°
orbit number at epoch: 83529

The dashed part of the orbit path shows where the satellite is in the earth's shadow,  

DLR